QTR8147 MMSM-KATL

Flight info

Callsign QTR8147
Flight time 2h 51m
Altitude 35000
Route IKLAN2D IKLAN UT141 TAM UM575 CLONN M575 KENGS M345 TBD DCT MEI DCT ORRKK HOBTT3
Aircraft B77L/H-SDE1E2E3FGHIJ2J3J4J5M1RWXY/LB1D1

Departure

Time 2026-05-05 11:57
Airport Felipe Ángeles International Airport (MMSM)

Arrival

Time 2026-05-05 14:48
Airport Hartsfield Jackson Atlanta International Airport (KATL)
Time Latitude Longitude Altitude Speed Heading
2026-05-05 11:25 19.75512 -99.00707 7381 ft 0 kts 140°
2026-05-05 11:44 19.75513 -99.00708 7381 ft 1 kts 140°
2026-05-05 11:44 19.75514 -99.00709 7381 ft 2 kts 140°
2026-05-05 11:44 19.75533 -99.00726 7381 ft 4 kts 140°
2026-05-05 11:44 19.75554 -99.00745 7382 ft 4 kts 140°
2026-05-05 11:45 19.75572 -99.00761 7381 ft 4 kts 156°
2026-05-05 11:45 19.75594 -99.00761 7381 ft 4 kts 212°
2026-05-05 11:45 19.75612 -99.00746 7382 ft 1 kts 227°
2026-05-05 11:47 19.75609 -99.00749 7380 ft 1 kts 227°
2026-05-05 11:48 19.75587 -99.00779 7382 ft 4 kts 242°
2026-05-05 11:48 19.75585 -99.00807 7382 ft 4 kts 279°
2026-05-05 11:48 19.75602 -99.00834 7382 ft 5 kts 313°
2026-05-05 11:49 19.75607 -99.00867 7382 ft 5 kts 258°
2026-05-05 11:49 19.75592 -99.00904 7382 ft 6 kts 243°
2026-05-05 11:49 19.75563 -99.00941 7381 ft 7 kts 224°
2026-05-05 11:49 19.75527 -99.00981 7382 ft 8 kts 229°
2026-05-05 11:50 19.75490 -99.01032 7382 ft 9 kts 229°
2026-05-05 11:50 19.75444 -99.01085 7381 ft 10 kts 227°
2026-05-05 11:50 19.75392 -99.01147 7380 ft 14 kts 228°
2026-05-05 11:50 19.75315 -99.01238 7381 ft 20 kts 228°
2026-05-05 11:51 19.75213 -99.01362 7381 ft 25 kts 228°
2026-05-05 11:51 19.75090 -99.01515 7381 ft 29 kts 230°
2026-05-05 11:51 19.74955 -99.01682 7382 ft 30 kts 229°
2026-05-05 11:51 19.74819 -99.01849 7382 ft 30 kts 229°
2026-05-05 11:52 19.74684 -99.02014 7381 ft 30 kts 229°
2026-05-05 11:52 19.74548 -99.02180 7381 ft 30 kts 229°
2026-05-05 11:52 19.74411 -99.02346 7381 ft 30 kts 229°
2026-05-05 11:52 19.74275 -99.02512 7382 ft 30 kts 229°
2026-05-05 11:53 19.74139 -99.02680 7382 ft 30 kts 229°
2026-05-05 11:53 19.74002 -99.02844 7382 ft 30 kts 228°
2026-05-05 11:53 19.73867 -99.03011 7381 ft 30 kts 229°
2026-05-05 11:53 19.73731 -99.03177 7381 ft 30 kts 229°
2026-05-05 11:54 19.73595 -99.03343 7382 ft 30 kts 229°
2026-05-05 11:54 19.73461 -99.03507 7382 ft 30 kts 229°
2026-05-05 11:54 19.73327 -99.03672 7381 ft 24 kts 229°
2026-05-05 11:54 19.73255 -99.03797 7381 ft 15 kts 276°
2026-05-05 11:55 19.73314 -99.03869 7381 ft 13 kts 320°
2026-05-05 11:55 19.73385 -99.03930 7381 ft 13 kts 323°
2026-05-05 11:55 19.73441 -99.03921 7381 ft 10 kts 34°
2026-05-05 11:55 19.73537 -99.03810 7381 ft 32 kts 49°
2026-05-05 11:56 19.73806 -99.03482 7380 ft 89 kts 49°
2026-05-05 11:56 19.74132 -99.03084 7380 ft 125 kts 49°
2026-05-05 11:56 19.74812 -99.02253 7379 ft 171 kts 49°
2026-05-05 11:56 19.75669 -99.01205 7414 ft 200 kts 49°
2026-05-05 11:57 19.76588 -99.00077 7761 ft 203 kts 49°
2026-05-05 11:57 19.77489 -98.98955 8297 ft 198 kts 49°
2026-05-05 11:57 19.78413 -98.97839 8638 ft 203 kts 47°
2026-05-05 11:57 19.79533 -98.96917 8909 ft 206 kts 32°
2026-05-05 11:58 19.80752 -98.96095 9185 ft 216 kts 32°
2026-05-05 11:58 19.82067 -98.95181 9341 ft 235 kts 32°
2026-05-05 11:58 19.83497 -98.94165 9451 ft 259 kts 33°
2026-05-05 11:58 19.85049 -98.93044 9616 ft 280 kts 34°
2026-05-05 11:59 19.86708 -98.91839 9966 ft 295 kts 34°
2026-05-05 11:59 19.88444 -98.90575 10300 ft 313 kts 34°
2026-05-05 11:59 19.90368 -98.89356 10437 ft 331 kts 19°
2026-05-05 11:59 19.92698 -98.89051 10596 ft 352 kts 352°
2026-05-05 12:00 19.95085 -98.89855 10752 ft 366 kts 337°
2026-05-05 12:00 19.97579 -98.90524 10854 ft 382 kts 358°
2026-05-05 12:00 20.00226 -98.90245 11413 ft 379 kts
2026-05-05 12:00 20.02773 -98.89941 12663 ft 369 kts
2026-05-05 12:01 20.05360 -98.89775 13688 ft 368 kts
2026-05-05 12:01 20.07912 -98.89689 14321 ft 378 kts
2026-05-05 12:01 20.10614 -98.89628 14645 ft 395 kts
2026-05-05 12:01 20.13402 -98.89571 14839 ft 403 kts
2026-05-05 12:02 20.16217 -98.89507 14835 ft 404 kts
2026-05-05 12:02 20.19043 -98.89439 15226 ft 409 kts
2026-05-05 12:02 20.21896 -98.89373 16020 ft 411 kts
2026-05-05 12:02 20.24764 -98.89308 16839 ft 412 kts
2026-05-05 12:03 20.27637 -98.89267 17575 ft 415 kts
2026-05-05 12:03 20.30506 -98.89239 18227 ft 419 kts
2026-05-05 12:03 20.33438 -98.89212 18869 ft 423 kts
2026-05-05 12:03 20.36399 -98.89182 19441 ft 428 kts
2026-05-05 12:04 20.39397 -98.89146 20019 ft 432 kts
2026-05-05 12:04 20.42379 -98.88963 20427 ft 432 kts 12°
2026-05-05 12:04 20.45199 -98.87837 20825 ft 438 kts 31°
2026-05-05 12:04 20.47673 -98.85939 21304 ft 439 kts 37°
2026-05-05 12:05 20.50135 -98.83975 21775 ft 444 kts 36°
2026-05-05 12:05 20.52638 -98.82018 22305 ft 448 kts 36°
2026-05-05 12:05 20.55167 -98.80060 22824 ft 451 kts 35°
2026-05-05 12:05 20.57728 -98.78086 23307 ft 455 kts 35°
2026-05-05 12:06 20.60310 -98.76099 23758 ft 459 kts 35°
2026-05-05 12:06 20.62880 -98.74121 24183 ft 462 kts 35°
2026-05-05 12:06 20.65501 -98.72103 24602 ft 466 kts 35°
2026-05-05 12:06 20.68144 -98.70067 25026 ft 469 kts 35°
2026-05-05 12:07 20.70800 -98.68019 25465 ft 472 kts 34°
2026-05-05 12:07 20.73476 -98.65954 25888 ft 475 kts 34°
2026-05-05 12:07 20.76160 -98.63882 26296 ft 478 kts 34°
2026-05-05 12:07 20.78868 -98.61790 26679 ft 481 kts 34°
2026-05-05 12:08 20.81596 -98.59683 27087 ft 484 kts 34°
2026-05-05 12:08 20.84333 -98.57567 27495 ft 487 kts 34°
2026-05-05 12:08 20.87084 -98.55439 27877 ft 490 kts 34°
2026-05-05 12:08 20.89388 -98.53657 28171 ft 492 kts 34°
2026-05-05 12:09 20.92128 -98.51535 28538 ft 495 kts 34°
2026-05-05 12:09 20.94918 -98.49374 28907 ft 497 kts 34°
2026-05-05 12:09 20.97732 -98.47193 29257 ft 499 kts 34°
2026-05-05 12:09 21.00561 -98.45001 29585 ft 501 kts 34°
2026-05-05 12:10 21.03388 -98.42809 29930 ft 503 kts 34°
2026-05-05 12:10 21.06218 -98.40613 30392 ft 502 kts 34°
2026-05-05 12:10 21.09043 -98.38420 30896 ft 500 kts 34°
2026-05-05 12:10 21.11855 -98.36236 31363 ft 499 kts 34°
2026-05-05 12:11 21.14666 -98.34051 31749 ft 500 kts 34°
2026-05-05 12:11 21.17490 -98.31856 32134 ft 501 kts 34°
2026-05-05 12:11 21.20314 -98.29659 32532 ft 501 kts 34°
2026-05-05 12:11 21.23096 -98.27491 32931 ft 500 kts 35°
2026-05-05 12:12 21.25840 -98.25120 33283 ft 502 kts 40°
2026-05-05 12:12 21.28335 -98.22556 33583 ft 504 kts 43°
2026-05-05 12:12 21.30827 -98.19898 33918 ft 505 kts 43°
2026-05-05 12:12 21.33313 -98.17242 34316 ft 504 kts 43°
2026-05-05 12:13 21.35811 -98.14598 34706 ft 503 kts 43°
2026-05-05 12:13 21.38317 -98.11970 34953 ft 504 kts 43°
2026-05-05 12:13 21.43365 -98.06743 34904 ft 500 kts 39°
2026-05-05 12:14 21.46155 -98.04552 34897 ft 496 kts 28°
2026-05-05 12:14 21.49244 -98.02909 34914 ft 494 kts 19°
2026-05-05 12:14 21.55800 -98.01100 34921 ft 490 kts
2026-05-05 12:15 21.62535 -97.99835 34913 ft 491 kts
2026-05-05 12:15 21.69272 -97.98525 34911 ft 492 kts
2026-05-05 12:16 21.76017 -97.97158 34902 ft 493 kts
2026-05-05 12:16 21.82763 -97.95776 34895 ft 492 kts
2026-05-05 12:17 21.89447 -97.94408 34898 ft 492 kts
2026-05-05 12:17 21.96178 -97.93030 34898 ft 491 kts
2026-05-05 12:18 22.02895 -97.91657 34897 ft 491 kts
2026-05-05 12:18 22.09601 -97.90283 34898 ft 490 kts
2026-05-05 12:19 22.16301 -97.88909 34899 ft 490 kts
2026-05-05 12:19 22.23003 -97.87533 34898 ft 490 kts
2026-05-05 12:20 22.29557 -97.85428 34899 ft 494 kts 20°
2026-05-05 12:20 22.35615 -97.81959 34906 ft 498 kts 30°
2026-05-05 12:21 22.41443 -97.77901 34895 ft 498 kts 30°
2026-05-05 12:21 22.47280 -97.73856 34901 ft 498 kts 30°
2026-05-05 12:22 22.53135 -97.69857 34898 ft 498 kts 29°
2026-05-05 12:22 22.58993 -97.65862 34897 ft 498 kts 29°
2026-05-05 12:23 22.60397 -97.64903 34897 ft 497 kts 29°
2026-05-05 12:23 22.66250 -97.60899 34899 ft 497 kts 29°
2026-05-05 12:24 22.72092 -97.56898 34899 ft 497 kts 29°
2026-05-05 12:24 22.77933 -97.52890 34897 ft 497 kts 29°
2026-05-05 12:25 22.83771 -97.48882 34891 ft 496 kts 29°
2026-05-05 12:25 22.89608 -97.44872 34889 ft 496 kts 28°
2026-05-05 12:26 22.95438 -97.40857 34890 ft 496 kts 28°
2026-05-05 12:26 23.01268 -97.36838 34888 ft 496 kts 28°
2026-05-05 12:27 23.07096 -97.32822 34889 ft 496 kts 28°
2026-05-05 12:27 23.12915 -97.28804 34888 ft 495 kts 28°
2026-05-05 12:28 23.18716 -97.24792 34889 ft 495 kts 28°
2026-05-05 12:28 23.24522 -97.20765 34889 ft 495 kts 28°
2026-05-05 12:29 23.30335 -97.16732 34890 ft 495 kts 28°
2026-05-05 12:29 23.36109 -97.12730 34889 ft 495 kts 28°
2026-05-05 12:30 23.41930 -97.08696 34890 ft 495 kts 28°
2026-05-05 12:30 23.47733 -97.04666 34888 ft 495 kts 28°
2026-05-05 12:31 23.53539 -97.00629 34889 ft 495 kts 28°
2026-05-05 12:31 23.59341 -96.96591 34889 ft 494 kts 28°
2026-05-05 12:32 23.65104 -96.92577 34888 ft 494 kts 28°
2026-05-05 12:32 23.70899 -96.88535 34890 ft 494 kts 28°
2026-05-05 12:33 23.76697 -96.84486 34888 ft 494 kts 28°
2026-05-05 12:33 23.82493 -96.80432 34890 ft 495 kts 28°
2026-05-05 12:34 23.88283 -96.76377 34888 ft 494 kts 28°
2026-05-05 12:34 23.94074 -96.72316 34888 ft 494 kts 28°
2026-05-05 12:35 23.99859 -96.68255 34886 ft 493 kts 28°
2026-05-05 12:35 24.05592 -96.64227 34876 ft 493 kts 27°
2026-05-05 12:36 24.11365 -96.60167 34884 ft 493 kts 27°
2026-05-05 12:36 24.17140 -96.56100 34881 ft 493 kts 27°
2026-05-05 12:37 24.22911 -96.52030 34876 ft 493 kts 27°
2026-05-05 12:37 24.28689 -96.47950 34880 ft 493 kts 27°
2026-05-05 12:38 24.34441 -96.43887 34884 ft 493 kts 27°
2026-05-05 12:38 24.40212 -96.39804 34883 ft 494 kts 27°
2026-05-05 12:39 24.45969 -96.35729 35048 ft 497 kts 27°
2026-05-05 12:39 24.48869 -96.33674 35428 ft 495 kts 27°
2026-05-05 12:39 24.51759 -96.31622 35847 ft 492 kts 28°
2026-05-05 12:40 24.54622 -96.29587 36272 ft 490 kts 28°
2026-05-05 12:40 24.57481 -96.27556 36599 ft 489 kts 28°
2026-05-05 12:40 24.60355 -96.25515 36814 ft 490 kts 28°
2026-05-05 12:40 24.63217 -96.23481 36852 ft 491 kts 28°
2026-05-05 12:41 24.68920 -96.19424 36872 ft 483 kts 28°
2026-05-05 12:41 24.74521 -96.15441 36867 ft 477 kts 27°
2026-05-05 12:42 24.80105 -96.11471 36873 ft 478 kts 28°
2026-05-05 12:42 24.85653 -96.07518 36872 ft 479 kts 28°
2026-05-05 12:43 24.91254 -96.03521 36870 ft 480 kts 28°
2026-05-05 12:43 24.96866 -95.99514 36872 ft 481 kts 28°
2026-05-05 12:44 25.02491 -95.95491 36873 ft 482 kts 27°
2026-05-05 12:44 25.07172 -95.92139 36872 ft 483 kts 28°
2026-05-05 12:45 25.13733 -95.87437 36870 ft 484 kts 27°
2026-05-05 12:45 25.19392 -95.83375 36873 ft 485 kts 28°
2026-05-05 12:46 25.24113 -95.79983 36882 ft 485 kts 28°
2026-05-05 12:46 25.30695 -95.75249 36879 ft 486 kts 27°
2026-05-05 12:47 25.35445 -95.71830 36877 ft 486 kts 27°
2026-05-05 12:47 25.41126 -95.67734 36879 ft 487 kts 27°
2026-05-05 12:48 25.46771 -95.63658 36880 ft 487 kts 27°
2026-05-05 12:48 25.52449 -95.59556 36881 ft 487 kts 27°
2026-05-05 12:49 25.58117 -95.55455 36879 ft 486 kts 27°
2026-05-05 12:49 25.63679 -95.51194 36881 ft 490 kts 34°
2026-05-05 12:50 25.68664 -95.45961 36886 ft 495 kts 40°
2026-05-05 12:50 25.73498 -95.40531 36883 ft 495 kts 40°
2026-05-05 12:51 25.78348 -95.35108 36885 ft 494 kts 40°
2026-05-05 12:51 25.83210 -95.29717 36883 ft 494 kts 40°
2026-05-05 12:52 25.88082 -95.24327 36877 ft 494 kts 40°
2026-05-05 12:52 25.92920 -95.18968 36882 ft 494 kts 40°
2026-05-05 12:53 25.97785 -95.13566 36888 ft 494 kts 40°
2026-05-05 12:53 26.02651 -95.08157 36884 ft 495 kts 39°
2026-05-05 12:54 26.09962 -95.00021 36892 ft 496 kts 39°
2026-05-05 12:55 26.14806 -94.94618 36895 ft 497 kts 39°
2026-05-05 12:55 26.19688 -94.89170 36894 ft 497 kts 39°
2026-05-05 12:56 26.24580 -94.83700 36889 ft 498 kts 39°
2026-05-05 12:56 26.29464 -94.78233 36901 ft 498 kts 39°
2026-05-05 12:57 26.34353 -94.72754 36896 ft 498 kts 39°
2026-05-05 12:57 26.39251 -94.67260 36898 ft 498 kts 39°
2026-05-05 12:58 26.44134 -94.61772 36898 ft 498 kts 39°
2026-05-05 12:58 26.49009 -94.56287 36912 ft 498 kts 39°
2026-05-05 12:59 26.53863 -94.50821 36910 ft 498 kts 39°
2026-05-05 12:59 26.58745 -94.45315 36902 ft 498 kts 39°
2026-05-05 13:00 26.66069 -94.37043 36903 ft 498 kts 39°
2026-05-05 13:01 26.75817 -94.26006 36908 ft 498 kts 39°
2026-05-05 13:01 26.80647 -94.20525 36915 ft 498 kts 39°
2026-05-05 13:02 26.85508 -94.15006 36905 ft 497 kts 39°
2026-05-05 13:02 26.90372 -94.09473 36914 ft 498 kts 39°
2026-05-05 13:03 26.95226 -94.03947 36927 ft 498 kts 39°
2026-05-05 13:03 27.00083 -93.98404 36930 ft 499 kts 39°
2026-05-05 13:04 27.04946 -93.92850 36931 ft 498 kts 38°
2026-05-05 13:04 27.09807 -93.87295 36937 ft 499 kts 38°
2026-05-05 13:05 27.14669 -93.81737 36942 ft 499 kts 38°
2026-05-05 13:05 27.19532 -93.76167 36946 ft 499 kts 38°
2026-05-05 13:06 27.24367 -93.70623 36947 ft 499 kts 38°
2026-05-05 13:06 27.29227 -93.65041 36955 ft 499 kts 38°
2026-05-05 13:07 27.34082 -93.59456 36953 ft 499 kts 38°
2026-05-05 13:07 27.38928 -93.53873 36954 ft 499 kts 38°
2026-05-05 13:08 27.43777 -93.48278 36954 ft 499 kts 38°
2026-05-05 13:08 27.48621 -93.42689 36954 ft 498 kts 38°
2026-05-05 13:09 27.53456 -93.37100 36954 ft 499 kts 38°
2026-05-05 13:09 27.58301 -93.31491 36954 ft 499 kts 38°
2026-05-05 13:10 27.63140 -93.25877 36955 ft 498 kts 38°
2026-05-05 13:10 27.67946 -93.20298 36953 ft 498 kts 38°
2026-05-05 13:11 27.72795 -93.14664 36962 ft 498 kts 38°
2026-05-05 13:11 27.77619 -93.09054 36963 ft 498 kts 38°
2026-05-05 13:12 27.82431 -93.03448 36963 ft 497 kts 38°
2026-05-05 13:12 27.87247 -92.97828 36970 ft 497 kts 38°
2026-05-05 13:13 27.92026 -92.92242 36971 ft 496 kts 38°
2026-05-05 13:13 27.96824 -92.86631 36980 ft 496 kts 38°
2026-05-05 13:14 28.01616 -92.81015 36968 ft 496 kts 38°
2026-05-05 13:14 28.06407 -92.75392 36977 ft 496 kts 37°
2026-05-05 13:15 28.11190 -92.69774 36984 ft 495 kts 37°
2026-05-05 13:15 28.15968 -92.64152 36980 ft 495 kts 37°
2026-05-05 13:16 28.20740 -92.58529 36980 ft 494 kts 37°
2026-05-05 13:16 28.25508 -92.52904 36982 ft 494 kts 37°
2026-05-05 13:17 28.30271 -92.47276 36986 ft 494 kts 37°
2026-05-05 13:17 28.34997 -92.41679 36985 ft 495 kts 37°
2026-05-05 13:18 28.39754 -92.36041 36979 ft 494 kts 37°
2026-05-05 13:18 28.44510 -92.30397 36984 ft 494 kts 37°
2026-05-05 13:19 28.49252 -92.24755 36990 ft 493 kts 37°
2026-05-05 13:19 28.53995 -92.19110 36991 ft 494 kts 37°
2026-05-05 13:20 28.58745 -92.13447 36992 ft 494 kts 37°
2026-05-05 13:20 28.63489 -92.07785 36987 ft 494 kts 37°
2026-05-05 13:21 28.68237 -92.02107 36983 ft 495 kts 37°
2026-05-05 13:21 28.72982 -91.96427 36990 ft 495 kts 37°
2026-05-05 13:22 28.77723 -91.90744 36989 ft 494 kts 37°
2026-05-05 13:22 28.82456 -91.85059 36990 ft 493 kts 37°
2026-05-05 13:23 28.83676 -91.83592 36991 ft 494 kts 37°
2026-05-05 13:23 28.88371 -91.77946 36991 ft 493 kts 37°
2026-05-05 13:24 28.93088 -91.72264 36990 ft 493 kts 37°
2026-05-05 13:24 28.97798 -91.66582 36990 ft 493 kts 37°
2026-05-05 13:25 29.02512 -91.60890 36991 ft 493 kts 37°
2026-05-05 13:25 29.07217 -91.55196 36992 ft 493 kts 37°
2026-05-05 13:26 29.11933 -91.49484 36990 ft 493 kts 37°
2026-05-05 13:26 29.16650 -91.43764 36992 ft 494 kts 37°
2026-05-05 13:27 29.21364 -91.38038 36991 ft 494 kts 37°
2026-05-05 13:27 29.26044 -91.32345 36990 ft 495 kts 37°
2026-05-05 13:28 29.30755 -91.26603 36992 ft 494 kts 37°
2026-05-05 13:28 29.35468 -91.20854 36990 ft 495 kts 37°
2026-05-05 13:29 29.40181 -91.15095 36992 ft 495 kts 37°
2026-05-05 13:29 29.44888 -91.09336 36991 ft 495 kts 37°
2026-05-05 13:30 29.49594 -91.03571 36998 ft 495 kts 37°
2026-05-05 13:30 29.54303 -90.97789 37001 ft 495 kts 37°
2026-05-05 13:31 29.59006 -90.92007 37001 ft 495 kts 37°
2026-05-05 13:31 29.63673 -90.86268 36999 ft 493 kts 36°
2026-05-05 13:32 29.68738 -90.81158 37000 ft 476 kts 25°
2026-05-05 13:32 29.74259 -90.77115 37007 ft 469 kts 21°
2026-05-05 13:33 29.79827 -90.73162 37000 ft 469 kts 21°
2026-05-05 13:33 29.85372 -90.69182 37000 ft 469 kts 21°
2026-05-05 13:34 29.89975 -90.65853 37003 ft 469 kts 21°
2026-05-05 13:34 29.96401 -90.61188 37003 ft 469 kts 21°
2026-05-05 13:35 30.01030 -90.57821 37010 ft 468 kts 21°
2026-05-05 13:35 30.06504 -90.53836 37008 ft 469 kts 20°
2026-05-05 13:36 30.12035 -90.49807 37013 ft 468 kts 21°
2026-05-05 13:36 30.17547 -90.45785 37008 ft 468 kts 21°
2026-05-05 13:37 30.23053 -90.41761 37009 ft 467 kts 21°
2026-05-05 13:37 30.28546 -90.37738 37010 ft 467 kts 21°
2026-05-05 13:38 30.34005 -90.33740 37009 ft 467 kts 21°
2026-05-05 13:38 30.39499 -90.29710 37010 ft 467 kts 21°
2026-05-05 13:39 30.44991 -90.25677 37014 ft 467 kts 21°
2026-05-05 13:39 30.50484 -90.21635 37005 ft 468 kts 21°
2026-05-05 13:40 30.55982 -90.17588 37013 ft 468 kts 21°
2026-05-05 13:40 30.61489 -90.13526 37009 ft 469 kts 21°
2026-05-05 13:41 30.67004 -90.09451 37010 ft 470 kts 21°
2026-05-05 13:41 30.72528 -90.05363 37018 ft 470 kts 21°
2026-05-05 13:42 30.78045 -90.01276 37023 ft 471 kts 21°
2026-05-05 13:42 30.83539 -89.97201 37020 ft 471 kts 20°
2026-05-05 13:43 30.89072 -89.93091 37017 ft 471 kts 20°
2026-05-05 13:43 30.94594 -89.88982 37015 ft 470 kts 20°
2026-05-05 13:44 31.00106 -89.84877 37014 ft 470 kts 20°
2026-05-05 13:44 31.05609 -89.80772 37018 ft 469 kts 20°
2026-05-05 13:45 31.11111 -89.76665 37029 ft 469 kts 20°
2026-05-05 13:45 31.16606 -89.72555 37026 ft 469 kts 20°
2026-05-05 13:46 31.22102 -89.68438 37040 ft 469 kts 20°
2026-05-05 13:46 31.27573 -89.64337 37042 ft 470 kts 20°
2026-05-05 13:47 31.33076 -89.60203 37041 ft 471 kts 20°
2026-05-05 13:47 31.38599 -89.56048 37033 ft 472 kts 20°
2026-05-05 13:48 31.44119 -89.51889 37033 ft 472 kts 20°
2026-05-05 13:48 31.49652 -89.47716 37041 ft 472 kts 20°
2026-05-05 13:49 31.55176 -89.43543 37039 ft 473 kts 20°
2026-05-05 13:49 31.60675 -89.39383 37030 ft 473 kts 20°
2026-05-05 13:50 31.66198 -89.35198 37025 ft 472 kts 20°
2026-05-05 13:50 31.71718 -89.31012 37022 ft 472 kts 20°
2026-05-05 13:51 31.77239 -89.26818 37019 ft 472 kts 20°
2026-05-05 13:51 31.82758 -89.22619 37014 ft 472 kts 20°
2026-05-05 13:52 31.88268 -89.18418 37023 ft 471 kts 20°
2026-05-05 13:52 31.93767 -89.14221 37019 ft 471 kts 20°
2026-05-05 13:53 31.99265 -89.10021 37016 ft 470 kts 20°
2026-05-05 13:53 32.04714 -89.05851 37016 ft 470 kts 19°
2026-05-05 13:54 32.10197 -89.01651 37005 ft 470 kts 19°
2026-05-05 13:54 32.15675 -88.97447 37014 ft 469 kts 19°
2026-05-05 13:55 32.21148 -88.93239 37009 ft 469 kts 19°
2026-05-05 13:55 32.26613 -88.89032 37007 ft 469 kts 19°
2026-05-05 13:56 32.32073 -88.84824 37015 ft 468 kts 19°
2026-05-05 13:56 32.34763 -88.82609 36998 ft 479 kts 27°
2026-05-05 13:56 32.37086 -88.79645 37010 ft 507 kts 43°
2026-05-05 13:57 32.38801 -88.75962 37004 ft 532 kts 59°
2026-05-05 13:57 32.39817 -88.71674 37035 ft 545 kts 68°
2026-05-05 13:57 32.41357 -88.62863 37012 ft 547 kts 69°
2026-05-05 13:58 32.42907 -88.54065 37016 ft 546 kts 68°
2026-05-05 13:58 32.44564 -88.45302 37019 ft 545 kts 67°
2026-05-05 13:59 32.47095 -88.32179 37014 ft 544 kts 67°
2026-05-05 14:00 32.49313 -88.20553 37018 ft 543 kts 68°
2026-05-05 14:00 32.51232 -88.10407 37020 ft 542 kts 68°
2026-05-05 14:01 32.52877 -88.01684 37017 ft 542 kts 68°
2026-05-05 14:01 32.54517 -87.92951 37026 ft 541 kts 67°
2026-05-05 14:02 32.56152 -87.84248 37030 ft 541 kts 67°
2026-05-05 14:02 32.57780 -87.75555 37039 ft 540 kts 67°
2026-05-05 14:03 32.59393 -87.66912 37045 ft 539 kts 67°
2026-05-05 14:03 32.61012 -87.58189 37050 ft 539 kts 67°
2026-05-05 14:04 32.62615 -87.49517 37053 ft 539 kts 67°
2026-05-05 14:04 32.64219 -87.40814 37058 ft 539 kts 67°
2026-05-05 14:05 32.65805 -87.32173 37062 ft 540 kts 67°
2026-05-05 14:05 32.67397 -87.23459 37058 ft 541 kts 67°
2026-05-05 14:06 32.68982 -87.14734 37059 ft 541 kts 67°
2026-05-05 14:06 32.70560 -87.06016 37066 ft 540 kts 67°
2026-05-05 14:07 32.72134 -86.97294 37063 ft 540 kts 67°
2026-05-05 14:07 32.73699 -86.88588 37065 ft 539 kts 67°
2026-05-05 14:08 32.75257 -86.79877 37079 ft 539 kts 67°
2026-05-05 14:08 32.76809 -86.71165 37067 ft 538 kts 67°
2026-05-05 14:09 32.78358 -86.62460 37073 ft 537 kts 67°
2026-05-05 14:09 32.79894 -86.53795 36630 ft 544 kts 67°
2026-05-05 14:10 32.80677 -86.49375 35932 ft 546 kts 68°
2026-05-05 14:10 32.81450 -86.44966 35245 ft 545 kts 68°
2026-05-05 14:10 32.82227 -86.40531 34439 ft 546 kts 68°
2026-05-05 14:10 32.82999 -86.36118 33624 ft 547 kts 68°
2026-05-05 14:11 32.83775 -86.31672 32841 ft 547 kts 68°
2026-05-05 14:11 32.84540 -86.27274 32356 ft 540 kts 69°
2026-05-05 14:11 32.85295 -86.22916 31831 ft 535 kts 69°
2026-05-05 14:11 32.86045 -86.18607 31299 ft 529 kts 70°
2026-05-05 14:12 32.86786 -86.14349 30812 ft 524 kts 70°
2026-05-05 14:12 32.87516 -86.10118 30289 ft 519 kts 71°
2026-05-05 14:12 32.88235 -86.05937 29780 ft 513 kts 71°
2026-05-05 14:12 32.88946 -86.01800 29262 ft 508 kts 71°
2026-05-05 14:13 32.89651 -85.97700 28747 ft 504 kts 71°
2026-05-05 14:13 32.90347 -85.93638 28244 ft 499 kts 72°
2026-05-05 14:13 32.91036 -85.89611 27740 ft 494 kts 72°
2026-05-05 14:13 32.91718 -85.85622 27244 ft 489 kts 72°
2026-05-05 14:14 32.92385 -85.81716 26754 ft 485 kts 73°
2026-05-05 14:14 32.93052 -85.77797 26263 ft 481 kts 73°
2026-05-05 14:14 32.93713 -85.73913 25778 ft 477 kts 73°
2026-05-05 14:14 32.94365 -85.70065 25299 ft 472 kts 74°
2026-05-05 14:15 32.95012 -85.66242 24815 ft 468 kts 74°
2026-05-05 14:15 32.95650 -85.62462 24493 ft 460 kts 75°
2026-05-05 14:15 32.96269 -85.58782 24504 ft 448 kts 75°
2026-05-05 14:15 32.96878 -85.55153 24455 ft 448 kts 75°
2026-05-05 14:16 32.97491 -85.51519 24048 ft 447 kts 75°
2026-05-05 14:16 32.98102 -85.47885 23513 ft 446 kts 75°
2026-05-05 14:16 32.98705 -85.44266 22917 ft 446 kts 75°
2026-05-05 14:16 32.99311 -85.40641 22380 ft 445 kts 75°
2026-05-05 14:17 32.99913 -85.37037 21948 ft 441 kts 76°
2026-05-05 14:17 33.00506 -85.33476 21550 ft 436 kts 76°
2026-05-05 14:17 33.01092 -85.29953 21142 ft 432 kts 76°
2026-05-05 14:17 33.01670 -85.26461 20716 ft 428 kts 76°
2026-05-05 14:18 33.02376 -85.23054 20181 ft 419 kts 65°
2026-05-05 14:18 33.03832 -85.20108 19586 ft 410 kts 44°
2026-05-05 14:18 33.05771 -85.17689 19088 ft 402 kts 42°
2026-05-05 14:18 33.07698 -85.15277 18590 ft 400 kts 43°
2026-05-05 14:19 33.09593 -85.12851 18124 ft 398 kts 44°
2026-05-05 14:19 33.11439 -85.10465 17690 ft 395 kts 44°
2026-05-05 14:19 33.13290 -85.08064 17257 ft 392 kts 44°
2026-05-05 14:19 33.15131 -85.05674 17048 ft 395 kts 44°
2026-05-05 14:20 33.16990 -85.03260 16997 ft 394 kts 45°
2026-05-05 14:20 33.18825 -85.00875 16501 ft 385 kts 45°
2026-05-05 14:20 33.20619 -84.98539 15744 ft 379 kts 45°
2026-05-05 14:20 33.22411 -84.96208 14961 ft 383 kts 45°
2026-05-05 14:21 33.24210 -84.93867 14482 ft 380 kts 46°
2026-05-05 14:21 33.25983 -84.91555 14112 ft 375 kts 46°
2026-05-05 14:21 33.27736 -84.89269 13651 ft 371 kts 46°
2026-05-05 14:21 33.29475 -84.87000 13148 ft 369 kts 46°
2026-05-05 14:22 33.31207 -84.84739 12646 ft 368 kts 46°
2026-05-05 14:22 33.32953 -84.82515 12202 ft 365 kts 44°
2026-05-05 14:22 33.34770 -84.80385 12035 ft 368 kts 43°
2026-05-05 14:22 33.36627 -84.78263 12027 ft 368 kts 43°
2026-05-05 14:23 33.36770 -84.78101 12033 ft 368 kts 43°
2026-05-05 14:23 33.37418 -84.77361 12026 ft 367 kts 43°
2026-05-05 14:23 33.39279 -84.75228 12020 ft 365 kts 43°
2026-05-05 14:23 33.41069 -84.73158 11940 ft 358 kts 44°
2026-05-05 14:24 33.42821 -84.71128 11863 ft 347 kts 44°
2026-05-05 14:24 33.44519 -84.69155 11766 ft 333 kts 44°
2026-05-05 14:24 33.46153 -84.67254 11649 ft 322 kts 44°
2026-05-05 14:24 33.47736 -84.65400 11448 ft 314 kts 44°
2026-05-05 14:25 33.49283 -84.63594 11161 ft 309 kts 44°
2026-05-05 14:25 33.50823 -84.61796 10761 ft 308 kts 44°
2026-05-05 14:25 33.52348 -84.60003 10372 ft 305 kts 47°
2026-05-05 14:25 33.53185 -84.58667 9994 ft 304 kts 65°
2026-05-05 14:26 33.53716 -84.56238 9503 ft 300 kts 89°
2026-05-05 14:26 33.53726 -84.53766 9119 ft 297 kts 92°
2026-05-05 14:26 33.53708 -84.51299 8760 ft 294 kts 92°
2026-05-05 14:26 33.53698 -84.48863 8390 ft 292 kts 92°
2026-05-05 14:27 33.53693 -84.46432 8007 ft 290 kts 92°
2026-05-05 14:27 33.53688 -84.44021 7612 ft 289 kts 92°
2026-05-05 14:27 33.53686 -84.41623 7236 ft 287 kts 92°
2026-05-05 14:27 33.53688 -84.39235 6866 ft 286 kts 92°
2026-05-05 14:28 33.53688 -84.36870 6573 ft 283 kts 92°
2026-05-05 14:28 33.53689 -84.34514 6217 ft 282 kts 91°
2026-05-05 14:28 33.53691 -84.32199 5934 ft 279 kts 92°
2026-05-05 14:28 33.53692 -84.29926 5824 ft 266 kts 92°
2026-05-05 14:29 33.53694 -84.27751 5675 ft 256 kts 92°
2026-05-05 14:29 33.53695 -84.25658 5425 ft 248 kts 92°
2026-05-05 14:29 33.53697 -84.23604 5116 ft 244 kts 92°
2026-05-05 14:29 33.53699 -84.21615 5076 ft 236 kts 92°
2026-05-05 14:30 33.53698 -84.19617 5041 ft 244 kts 92°
2026-05-05 14:30 33.53701 -84.17572 5038 ft 247 kts 92°
2026-05-05 14:30 33.53914 -84.15548 5001 ft 247 kts 66°
2026-05-05 14:30 33.55034 -84.14005 5036 ft 250 kts 30°
2026-05-05 14:31 33.56687 -84.13402 5024 ft 251 kts 359°
2026-05-05 14:31 33.58332 -84.13840 4942 ft 243 kts 328°
2026-05-05 14:31 33.59583 -84.15117 4890 ft 233 kts 308°
2026-05-05 14:31 33.60597 -84.16608 4871 ft 228 kts 305°
2026-05-05 14:32 33.61531 -84.18119 4796 ft 222 kts 295°
2026-05-05 14:32 33.61932 -84.19857 4535 ft 213 kts 271°
2026-05-05 14:32 33.62018 -84.21639 4251 ft 216 kts 269°
2026-05-05 14:32 33.62036 -84.23417 3995 ft 210 kts 267°
2026-05-05 14:33 33.62039 -84.25176 3709 ft 213 kts 267°
2026-05-05 14:33 33.62035 -84.26939 3421 ft 210 kts 266°
2026-05-05 14:33 33.62033 -84.28658 3144 ft 199 kts 266°
2026-05-05 14:33 33.62031 -84.30255 2890 ft 186 kts 266°
2026-05-05 14:34 33.62031 -84.31768 2647 ft 177 kts 268°
2026-05-05 14:34 33.62030 -84.33194 2426 ft 165 kts 269°
2026-05-05 14:34 33.62031 -84.34510 2197 ft 149 kts 270°
2026-05-05 14:34 33.62031 -84.35722 2029 ft 148 kts 270°
2026-05-05 14:35 33.62033 -84.36973 1875 ft 151 kts 270°
2026-05-05 14:35 33.62031 -84.38240 1661 ft 151 kts 270°
2026-05-05 14:35 33.62026 -84.39494 1424 ft 149 kts 271°
2026-05-05 14:35 33.62023 -84.40729 1206 ft 147 kts 270°
2026-05-05 14:36 33.62025 -84.41963 1080 ft 149 kts 270°
2026-05-05 14:36 33.62033 -84.43166 1075 ft 144 kts 268°
2026-05-05 14:36 33.61991 -84.44513 1737 ft 180 kts 265°
2026-05-05 14:36 33.61815 -84.46027 2406 ft 170 kts 246°
2026-05-05 14:37 33.60974 -84.47014 2272 ft 186 kts 202°
2026-05-05 14:37 33.59725 -84.47571 2634 ft 187 kts 198°
2026-05-05 14:37 33.58431 -84.48054 2834 ft 205 kts 199°
2026-05-05 14:37 33.57012 -84.48580 2950 ft 215 kts 200°
2026-05-05 14:38 33.55591 -84.49110 3162 ft 215 kts 200°
2026-05-05 14:38 33.54144 -84.49542 3583 ft 214 kts 182°
2026-05-05 14:38 33.52712 -84.49099 4052 ft 218 kts 148°
2026-05-05 14:38 33.51711 -84.47737 4503 ft 224 kts 116°
2026-05-05 14:39 33.51450 -84.45878 4875 ft 231 kts 90°
2026-05-05 14:39 33.51595 -84.43942 5272 ft 235 kts 85°
2026-05-05 14:39 33.51796 -84.41994 5664 ft 236 kts 85°
2026-05-05 14:39 33.52002 -84.40053 6039 ft 239 kts 84°
2026-05-05 14:40 33.52219 -84.38042 6005 ft 243 kts 84°
2026-05-05 14:40 33.52434 -84.36047 6001 ft 239 kts 84°
2026-05-05 14:40 33.52654 -84.34082 6031 ft 238 kts 84°
2026-05-05 14:40 33.52875 -84.32118 6018 ft 237 kts 84°
2026-05-05 14:41 33.53092 -84.30164 6024 ft 236 kts 84°
2026-05-05 14:41 33.53304 -84.28205 6030 ft 238 kts 84°
2026-05-05 14:41 33.53518 -84.26240 6021 ft 238 kts 84°
2026-05-05 14:41 33.53739 -84.24274 6038 ft 238 kts 84°
2026-05-05 14:42 33.53964 -84.22318 5932 ft 237 kts 84°
2026-05-05 14:42 33.54192 -84.20354 5748 ft 237 kts 84°
2026-05-05 14:42 33.54414 -84.18399 5500 ft 236 kts 82°
2026-05-05 14:42 33.55018 -84.16610 5191 ft 235 kts 46°
2026-05-05 14:43 33.56409 -84.15701 4954 ft 229 kts
2026-05-05 14:43 33.57905 -84.16078 4662 ft 221 kts 322°
2026-05-05 14:43 33.58987 -84.17335 4408 ft 215 kts 313°
2026-05-05 14:43 33.60133 -84.18523 4111 ft 218 kts 318°
2026-05-05 14:44 33.61278 -84.19627 4065 ft 214 kts 318°
2026-05-05 14:44 33.62399 -84.20790 3989 ft 212 kts 302°
2026-05-05 14:44 33.62907 -84.22378 4046 ft 199 kts 272°
2026-05-05 14:44 33.63052 -84.24008 3880 ft 198 kts 273°
2026-05-05 14:45 33.63163 -84.25628 3616 ft 190 kts 269°
2026-05-05 14:45 33.63185 -84.27186 3402 ft 183 kts 266°
2026-05-05 14:45 33.63186 -84.28679 3129 ft 173 kts 266°
2026-05-05 14:45 33.63187 -84.30043 2929 ft 154 kts 265°
2026-05-05 14:46 33.63184 -84.31275 2734 ft 142 kts 266°
2026-05-05 14:46 33.63186 -84.32467 2529 ft 146 kts 268°
2026-05-05 14:46 33.63183 -84.33675 2354 ft 145 kts 269°
2026-05-05 14:46 33.63182 -84.34894 2168 ft 148 kts 270°
2026-05-05 14:47 33.63194 -84.36139 2010 ft 150 kts 271°
2026-05-05 14:47 33.63189 -84.37392 1800 ft 151 kts 270°
2026-05-05 14:47 33.63175 -84.38645 1561 ft 148 kts 270°
2026-05-05 14:47 33.63174 -84.39872 1373 ft 147 kts 271°
2026-05-05 14:48 33.63185 -84.41106 1186 ft 148 kts 270°
2026-05-05 14:48 33.63185 -84.42329 1043 ft 147 kts 267°
2026-05-05 14:48 33.63182 -84.43404 1027 ft 102 kts 270°
2026-05-05 14:48 33.63183 -84.43979 1023 ft 39 kts 270°
2026-05-05 14:49 33.63143 -84.44145 1022 ft 17 kts 203°
2026-05-05 14:49 33.63078 -84.44081 1015 ft 14 kts 101°
2026-05-05 14:49 33.63074 -84.43961 1015 ft 14 kts 90°
2026-05-05 14:49 33.63073 -84.43841 1015 ft 14 kts 90°
2026-05-05 14:50 33.63073 -84.43724 1015 ft 14 kts 89°
2026-05-05 14:50 33.63073 -84.43627 1016 ft 14 kts 90°